Regional Weather Roundup
Issued by NWS

Home | Current Version | Previous Version | Graphics & Text | Print | Product List | Glossary On
Versions: 1 2 3 4 5 6 7 8 9 10 11 12 13 14 15 16 17 18 19 20 21 22 23 24 25 26 27 28 29 30 31 32 33 34 35 36 37 38 39 40 41 42 43 44 45 46 47 48 49 50
000
ASUS43 KLOT 281113
RWRIL

ILLINOIS REGIONAL WEATHER ROUNDUP
NATIONAL WEATHER SERVICE CHICAGO/ROMEOVILLE IL
600 AM CDT WED SEP 28 2016

NOTE: "FAIR" INDICATES FEW OR NO CLOUDS BELOW 12,000 FEET WITH NO
SIGNIFICANT WEATHER AND/OR OBSTRUCTIONS TO VISIBILITY.

* THESE STATIONS ARE NOT UNDER NWS QUALITY CONTROL. THEY ALSO MAY NOT
  REPORT WEATHER SUCH AS PRECIPITATION OR FOG.

ILZ001-002-007-009-015-016-024-281200-
NORTHWEST ILLINOIS

CITY           SKY/WX    TMP DP  RH WIND       PRES   REMARKS
MOLINE         CLOUDY    51  44  77 NW12      29.87R
STERLING*      PTCLDY    49  46  90 N10       29.85R
SAVANNA*       CLOUDY    51  45  82 NW9       29.87R
$$

ILZ003-004-008-010-011-017-018-281200-
NORTH CENTRAL ILLINOIS

CITY           SKY/WX    TMP DP  RH WIND       PRES   REMARKS
ROCKFORD       CLOUDY    49  47  93 N10       29.85R
FREEPORT*      CLOUDY    47  46  93 NW7       29.86S
ROCHELLE*      MOCLDY    47  46  93 NW8       29.84R
DE KALB*       CLOUDY    48  46  93 NW6       29.83R
$$

ILZ005-006-012>014-019>023-281200-
NORTHEAST ILLINOIS

CITY           SKY/WX    TMP DP  RH WIND       PRES   REMARKS
CHICAGO-OHARE  LGT RAIN  51  46  83 N10       29.80R
CHICAGO-MIDWAY DRIZZLE   54  47  77 N7        29.79R
AURORA         LGT RAIN  51  46  83 N10       29.81R
LANSING*       CLOUDY    55  47  76 NW7       29.78R
JOLIET*        CLOUDY    54  47  76 N8        29.80R
WAUKEGAN       CLOUDY    49  47  93 N3        29.81R
DUPAGE AIRPORT CLOUDY    51  44  77 N9        29.80R
KANKAKEE*      CLOUDY    55  48  78 N6        29.78R
WHEELING       CLOUDY    50  47  89 N7        29.82R
MORRIS*        CLOUDY    52  46  79 N3        29.79R
ROMEOVILLE*    LGT RAIN  52  49  89 N9        29.79R
NORTHERLY ISL    N/A     53  45  74 N10         N/A
$$

LMZ740>746-281200-
SOUTHERN LAKE MICHIGAN

STATION/POSITION SKY/WX   TEMP    WIND        PRES    VSBY  WAVE
                          AIR SEA DIR/SP/G                  HT/PER
                          (F)     (DEG/KT/KT) (MB)    (MI)  (FT/S)
SOUTHERN BUOY              55 69   50/  4/  6 1008.9R         1/ 4
WILMETTE HARBOR            52 60   10/ 12/ 16   N/A           1/ 2
HARRISON CRIB              56     340/ 13/ 14   N/A
BURNHAM HARBOR             53     340/  8/ 11   N/A
CALUMET HARBOR             54     310/  5/ 11 1008.1R
BURNS HARBOR               56      10/ 16/ 20 1008.5S
MICHIGAN CITY              58     350/ 12/ 13   N/A
MICHIGAN CITY 6N           57 67  350/ 19/ 25   N/A           3/ 4
ST. JOSEPH                 58 66   60/ 14/ 16 1008.3          2/ 5
$$

ILZ025>027-034>036-040-047-049-050-058-095>099-281200-
WEST-CENTRAL ILLINOIS

CITY           SKY/WX    TMP DP  RH WIND       PRES   REMARKS
QUINCY         CLOUDY    55  46  71 N7        29.83R
GALESBURG*     CLOUDY    52  46  80 N13       29.85R
MACOMB*        CLOUDY    54  47  76 N8        29.87R
JACKSONVILLE*  CLOUDY    58  46  64 N10       29.80R
PITTSFIELD*    CLOUDY    59  47  64 N6        29.83R
$$

ILZ028>032-037-038-041>044-048-051>054-059>061-281200-
CENTRAL ILLINOIS

CITY           SKY/WX    TMP DP  RH WIND       PRES   REMARKS
PONTIAC        CLOUDY    54  50  88 NW8       29.80R
BLOOMINGTON    CLOUDY    53  48  83 N16       29.80R
DECATUR        CLOUDY    60  49  66 NW8       29.76R
PEORIA         CLOUDY    54  46  74 N10G21    29.83R
LACON*         CLOUDY    51  44  76 N9        29.82R
LINCOLN*       CLOUDY    56  48  76 N6        29.79R
SPRINGFIELD    CLOUDY    58  47  66 N10       29.79R
TAYLORVILLE    CLOUDY    59  52  79 W3        29.77R
$$

ILZ033-039-045-046-055>057-062-063-281200-
EAST-CENTRAL ILLINOIS

CITY           SKY/WX    TMP DP  RH WIND       PRES   REMARKS
CHAMPAIGN      CLOUDY    56  52  86 N6        29.75R
RANTOUL*       CLOUDY    54  50  85 W6        29.76R
MATTOON        CLOUDY    60  52  74 SW7       29.74S
PARIS*         CLOUDY    58  55  92 CALM      29.76R
$$

ILZ079-100>102-281200-
SOUTHWEST ILLINOIS

CITY           SKY/WX    TMP DP  RH WIND       PRES   REMARKS
BELLEVILLE     CLOUDY    60  54  82 SW8       29.77F
CAHOKIA*       MOCLDY    63  52  67 W6        29.79S
SPARTA*        CLOUDY    61  51  70 SW6       29.81S
$$

ILZ064>066-069>071-074>076-080>082-084>086-088>090-092>094-281200-
SOUTH-CENTRAL ILLINOIS

CITY           SKY/WX    TMP DP  RH WIND       PRES   REMARKS
CARBONDALE     CLEAR     55  53  93 S6        29.81F
CAIRO*         CLEAR     59  51  75 S8        29.85F
EFFINGHAM*     CLOUDY    59  56  90 SW5       29.77F
MARION         CLEAR     61  54  77 SW5       29.82S
MT. VERNON     MOCLDY    55  48  76 SW5       29.80S
CENTRALIA*     PTCLDY    59  55  86 SW5       29.78S
SALEM*         MOCLDY    59  54  81 CALM      29.78F
METROPOLIS*    PTCLDY    59  51  75 CALM      29.85F
$$

ILZ067-068-072-073-078-083-087-091-281200-
SOUTHEAST ILLINOIS

CITY           SKY/WX    TMP DP  RH WIND       PRES   REMARKS
LAWRENCEVILLE  CLOUDY    58  53  84 S3        29.77F
FLORA*         CLOUDY    59  54  83 SW8       29.77F
FAIRFIELD*       N/A     57  54  88 CALM      29.79S
HARRISBURG*    PTCLDY    58  53  85 SW5       29.82F
ROBINSON*      CLOUDY    57  53  86 SW5       29.77S
CARMI*         CLEAR     59  53  80 SW7       29.80S
$$

ABBREVIATIONS USED IN REMARKS
   TC - TEMPERATURE IN CELSIUS
  WCI - WIND CHILL INDEX
   HX - HEAT INDEX
  VSB - VISIBILITY
$$





USA.gov is the U.S. government's official web portal to all federal, state and local government web resources and services.